Torna al catalogo

SL-12 DEB

AttivoHEO
NORAD 23297·DEBRIS·🇷🇺 Russia

Lanciato Dec 24, 1985 da Baikonur Cosmodrome

Loading…

Prossimi Passaggi (prossime 24 ore)

TLE

AggiornatoSource: Space-Track

Epoca: Sep 14, 2026, 05:24 UTC

1 23297U 85118U   26257.22509796 -.00000052  00000-0  00000-0 0  9996
2 23297  67.4598 326.5121 4953448 142.6148 265.2174  4.68572833564252

Traccia SL-12 DEB in tempo reale con AllMySat

Download on the App Store